Vienna, OH

1:56 PM EST on February 27, 2017 (GMT -0500)
Youngstown-Warren Regional

Weather History for KYNG - August, 2013

Change the Weather History Date:

Saturday, August 17, 2013

  Actual Average Record
Temperature  
Mean Temperature 64 °F 69 °F  
Max Temperature 77 °F 80 °F 97 °F (1988)
Min Temperature 51 °F 58 °F 43 °F (1981)
Degree Days  
Heating Degree Days 1 1  
Month to date heating degree days 25 12  
Since 1 June heating degree days 94 94  
Since 1 July heating degree days 38 25  
Cooling Degree Days 0 5  
Month to date cooling degree days 34 93  
Year to date cooling degree days 460 427  
Since 1 June cooling degree days 372 388  
Growing Degree Days 14 (Base 50)    
Moisture  
Dew Point 54 °F    
Average Humidity 70    
Maximum Humidity 96    
Minimum Humidity 43    
Precipitation  
Precipitation 0.00 in 0.10 in 0.84 in (1963)
Month to date precipitation 1.18 1.77  
Year to date precipitation 25.77 24.75  
Snow  
Snow 0.00 in 0.00 in - ()
Month to date snowfall 0.0 0.0  
Since 1 June snowfall T 0.0  
Since 1 July snowfall 0.0 0.0  
Snow Depth 0.00 in    
Sea Level Pressure  
Sea Level Pressure 30.23 in    
Wind  
Wind Speed 6 mph (ESE)    
Max Wind Speed 14 mph    
Max Gust Speed 16 mph    
Visibility 10 miles    
Events      
T = Trace of Precipitation, MM = Missing Value Source: NWS Daily Summary

Daily Weather History Graph

Daily Weather History Graph

Search for Another Location

Airport or City:

Trip Planner

Search our weather history database for the weather conditions in past years. The results will help you decide how hot, cold, wet, or windy it might be!

Date:

Astronomy

Aug. 17, 2013 Rise Set
Actual Time 6:34 AM EDT 8:18 PM EDT
Civil Twilight 6:04 AM EDT 8:47 PM EDT
Nautical Twilight 5:28 AM EDT 9:23 PM EDT
Astronomical Twilight 4:50 AM EDT 10:01 PM EDT
Moon 5:33 PM EDT (8/17) 2:34 AM EDT (8/17)
Length of Visible Light 14h 43m
Length of Day
13h 44m
Waxing Gibbous, 84% of the Moon is Illuminated
Aug 17
Waxing Gibbous
Aug 20
Full
Aug 28
Last Quarter
Sep 5
New
Sep 12
First Quarter

Hourly Weather History & Observations

Time (EDT) Temp. Dew Point Humidity Pressure Visibility Wind Dir Wind Speed Gust Speed Precip Events Conditions
12:51 AM 57.0 °F 53.1 °F 87% 30.21 in 10.0 mi ENE 4.6 mph - N/A   Partly Cloudy
1:51 AM 57.0 °F 53.1 °F 87% 30.21 in 10.0 mi ENE 5.8 mph - N/A   Partly Cloudy
2:51 AM 57.0 °F 52.0 °F 83% 30.21 in 10.0 mi ENE 6.9 mph - N/A   Partly Cloudy
3:51 AM 55.9 °F 52.0 °F 87% 30.22 in 10.0 mi ENE 5.8 mph - N/A   Mostly Cloudy
4:51 AM 52.0 °F 50.0 °F 93% 30.23 in 10.0 mi East 4.6 mph - N/A   Partly Cloudy
5:51 AM 54.0 °F 51.1 °F 90% 30.23 in 10.0 mi East 4.6 mph - N/A   Scattered Clouds
6:51 AM 53.1 °F 51.1 °F 93% 30.25 in 10.0 mi East 5.8 mph - N/A   Mostly Cloudy
7:51 AM 57.0 °F 54.0 °F 89% 30.25 in 10.0 mi ESE 8.1 mph - N/A   Mostly Cloudy
8:51 AM 63.0 °F 55.9 °F 78% 30.26 in 10.0 mi ESE 8.1 mph - N/A   Mostly Cloudy
9:51 AM 66.9 °F 55.9 °F 68% 30.26 in 10.0 mi ESE 6.9 mph - N/A   Mostly Cloudy
10:51 AM 70.0 °F 57.0 °F 63% 30.27 in 10.0 mi SE 5.8 mph - N/A   Overcast
11:51 AM 71.1 °F 55.9 °F 59% 30.27 in 10.0 mi SE 6.9 mph - N/A   Overcast
12:51 PM 73.0 °F 55.9 °F 55% 30.26 in 10.0 mi ESE 8.1 mph - N/A   Mostly Cloudy
1:51 PM 75.0 °F 55.0 °F 50% 30.24 in 10.0 mi ESE 6.9 mph - N/A   Mostly Cloudy
2:51 PM 75.9 °F 54.0 °F 46% 30.24 in 10.0 mi SE 10.4 mph 16.1 mph N/A   Mostly Cloudy
3:51 PM 77.0 °F 54.0 °F 45% 30.22 in 10.0 mi SE 6.9 mph 16.1 mph N/A   Mostly Cloudy
4:51 PM 77.0 °F 54.0 °F 45% 30.22 in 10.0 mi East 10.4 mph - N/A   Mostly Cloudy
5:51 PM 75.0 °F 54.0 °F 48% 30.22 in 10.0 mi East 4.6 mph - N/A   Mostly Cloudy
6:51 PM 73.9 °F 55.9 °F 53% 30.22 in 10.0 mi East 4.6 mph - N/A   Mostly Cloudy
7:51 PM 71.1 °F 57.0 °F 61% 30.22 in 10.0 mi ESE 3.5 mph - N/A   Mostly Cloudy
8:51 PM 64.9 °F 57.9 °F 78% 30.21 in 10.0 mi ESE 3.5 mph - N/A   Mostly Cloudy
9:51 PM 63.0 °F 57.0 °F 81% 30.22 in 10.0 mi ESE 4.6 mph - N/A   Overcast
10:51 PM 64.0 °F 55.9 °F 75% 30.22 in 10.0 mi ESE 4.6 mph - N/A   Mostly Cloudy
11:51 PM 64.0 °F 55.0 °F 73% 30.22 in 10.0 mi ESE 4.6 mph - N/A   Scattered Clouds